Snowfall_Accumulation
1.6 4.0 5.1 2.9 3.1 2.7 3.0 3.2 2.4 1.3 0.5 1.6 1.7 1.0 0.4 0.1 0.0 0.1 0.0 0.0 0.0 0.0 0.0 0.0 0.0 0.0 0.0 0.0 0.0 0.0 0.0 0.0 0.0 0.0 0.0 0.0 0.0 0.0 0.0 0.0 0.0 0.0 0.0 0.0
3.8 4.5 1.5 0.8 1.3 2.4 3.1 4.4 3.3 2.0 0.9 1.6 1.7 1.0 0.4 0.2 0.3 0.2 0.3 0.3 0.2 0.1 0.0 0.0 0.0 0.0 0.0 0.0 0.0 0.0 0.0 0.0 0.0 0.0 0.0 0.0 0.0 0.0 0.0 0.0 0.0 0.0 0.0 0.0
4.2 2.0 0.9 1.4 2.5 4.2 4.0 3.7 3.2 3.0 2.0 1.6 2.7 1.8 0.8 0.3 0.2 0.2 0.1 0.2 0.3 0.3 0.5 0.0 0.0 0.0 0.4 0.0 0.0 0.0 0.0 0.0 0.0 0.0 0.0 0.0 0.0 0.0 0.0 0.0 0.0 0.0 0.0 0.0
2.7 0.7 1.1 2.2 2.8 4.0 4.8 1.7 2.3 3.0 5.1 5.2 3.8 5.4 1.1 0.7 0.5 0.4 0.3 0.2 0.1 0.2 0.3 0.1 0.1 0.0 0.1 0.6 0.0 0.3 0.0 0.0 0.0 0.0 0.0 0.0 0.0 0.0 0.0 0.0 0.0 0.0 0.0 0.0
3.8 1.4 1.7 2.8 2.0 2.2 3.1 1.5 2.0 3.2 5.8 7.4 4.0 6.0 1.9 0.9 1.0 1.0 0.5 0.3 0.2 0.2 0.2 0.2 0.1 0.2 0.1 0.6 0.6 0.4 0.1 0.0 0.0 0.0 0.0 0.0 0.0 0.0 0.0 0.0 0.0 0.0 0.0 0.0
2.4 0.8 1.5 1.9 0.7 1.2 1.7 2.0 2.5 3.9 7.6 14.6 5.0 5.0 3.0 1.9 2.0 1.5 0.7 0.5 0.5 0.5 0.3 0.3 0.1 0.1 0.0 0.0 0.1 0.0 0.1 0.1 0.0 0.0 0.0 0.0 0.1 0.0 0.0 0.0 0.0 0.0 0.0 0.0
4.4 2.8 1.6 1.0 2.8 2.1 4.0 9.8 18.8 20.8 21.2 12.4 1.9 3.4 3.4 2.0 1.7 1.8 1.6 1.0 0.8 0.6 0.5 0.4 0.4 0.3 0.2 0.1 0.2 0.2 0.2 0.0 0.1 0.1 0.2 0.0 0.3 0.3 0.0 0.0 0.0 0.1 0.1 0.0
7.1 5.7 3.0 1.9 3.2 4.2 4.4 8.1 14.9 14.1 9.3 4.1 2.3 3.3 2.9 2.1 1.6 1.4 1.1 1.0 0.7 0.5 0.4 0.5 0.5 0.5 0.2 0.2 0.1 0.2 0.2 0.1 0.1 0.1 0.2 0.2 0.0 0.3 0.0 0.0 0.0 0.1 0.1 0.0
8.4 5.3 2.0 1.2 1.4 3.0 5.9 6.8 5.4 9.3 7.4 4.8 3.7 3.0 2.2 1.4 1.2 1.3 1.4 0.9 1.1 0.7 0.5 0.4 0.5 0.6 0.5 0.4 0.3 0.4 0.3 0.2 0.1 0.1 0.1 0.2 0.2 0.2 0.3 0.0 0.1 0.1 0.1 0.0
9.3 7.1 2.9 1.4 1.7 2.3 3.6 5.0 6.9 13.1 12.2 7.2 4.1 2.8 3.2 2.3 1.8 1.5 1.6 1.8 1.2 1.1 0.7 0.4 0.4 0.4 0.5 0.5 0.5 0.4 0.4 0.3 0.2 0.1 0.1 0.1 0.1 0.1 0.2 0.0 0.1 0.1 0.1 0.1
7.4 9.3 5.8 4.3 6.1 6.5 5.4 7.0 8.7 10.6 9.0 7.8 5.7 4.4 4.0 3.1 2.7 2.4 2.1 1.9 1.5 1.5 1.3 0.7 0.5 0.4 0.4 0.4 0.3 0.5 0.5 0.3 0.3 0.2 0.2 0.1 0.1 0.1 0.2 0.2 0.1 0.1 0.1 0.3
7.2 10.0 8.6 5.2 3.7 3.7 5.6 7.0 8.2 11.8 9.2 5.3 5.6 5.1 3.2 2.4 2.4 2.4 2.3 2.0 1.4 1.4 1.3 0.8 0.7 0.4 0.5 0.7 0.9 0.7 0.7 0.6 0.5 0.2 0.5 0.3 0.1 0.2 0.3 0.3 0.1 0.1 0.2 0.4
10.8 13.5 12.4 7.2 6.1 4.5 7.2 6.5 6.9 7.6 7.7 6.1 5.5 4.2 2.5 1.9 1.8 2.0 2.1 1.9 1.6 1.2 1.3 0.9 0.7 0.6 0.5 0.7 0.9 0.7 0.8 0.6 0.4 0.3 0.3 0.6 0.7 0.7 0.7 0.5 0.3 0.3 0.3 0.4
11.0 13.8 10.9 10.1 8.9 8.1 8.0 6.6 5.7 8.1 10.2 6.3 3.8 3.0 2.5 2.2 1.9 1.8 1.9 1.8 1.8 1.4 1.3 1.2 1.1 0.8 0.7 0.7 0.9 0.7 0.9 0.7 0.5 0.6 0.8 0.9 1.0 1.3 1.0 0.6 0.6 0.6 1.1 2.1
9.3 11.5 5.6 3.3 3.0 4.1 4.8 4.7 4.8 6.3 6.3 5.6 3.5 2.8 2.9 2.7 2.6 2.5 2.3 2.2 1.9 1.7 1.4 1.2 1.4 1.4 1.0 1.2 0.9 0.9 1.0 0.6 0.6 0.7 1.2 1.3 1.4 1.4 0.9 0.7 0.7 1.0 1.8 2.9
9.0 9.8 4.9 2.8 1.8 2.6 3.4 2.9 3.4 3.8 4.0 3.8 3.0 3.4 2.7 2.6 2.3 2.4 2.5 2.5 2.3 2.1 1.8 1.3 1.2 1.4 1.2 1.3 1.1 0.9 1.0 0.6 0.8 1.0 1.2 1.5 1.5 1.1 0.8 0.5 0.8 1.1 1.4 2.3
8.9 9.3 8.0 4.5 1.9 3.8 6.1 4.0 3.9 4.0 3.9 4.0 4.0 4.0 3.0 2.8 2.7 2.8 2.8 2.8 2.9 2.6 2.3 1.7 1.6 1.8 1.5 1.3 1.2 1.2 1.1 1.0 0.8 0.8 1.1 1.7 1.6 1.1 0.9 0.7 0.8 0.8 1.3 1.4
7.6 8.8 11.1 7.5 5.6 9.4 5.9 3.2 3.5 4.2 4.7 4.4 4.1 3.7 3.3 3.2 3.1 2.8 2.5 3.1 3.3 3.1 2.6 2.2 2.2 2.3 1.9 1.3 1.1 1.2 1.2 1.2 1.3 1.3 1.4 1.6 1.8 1.9 1.3 1.0 1.1 0.9 1.0 1.4
4.1 8.4 13.3 11.2 8.3 5.4 3.3 2.3 3.6 4.7 5.3 4.4 3.6 2.9 2.8 2.8 2.5 2.7 2.4 2.4 2.9 2.9 2.6 2.5 2.6 2.9 2.0 1.6 1.2 1.2 1.3 1.2 1.3 1.6 1.6 1.8 2.0 2.0 1.5 1.3 1.0 1.0 1.2 1.6
4.7 8.4 14.4 13.3 10.1 6.0 3.9 2.0 2.3 3.8 5.9 3.6 2.9 2.7 2.7 2.8 3.7 3.5 2.5 1.9 2.1 2.1 2.0 2.1 2.1 1.9 2.0 2.1 1.4 1.4 1.8 1.5 1.5 1.8 1.9 1.8 1.8 1.7 1.6 1.3 1.1 1.0 1.0 1.1
8.9 13.3 15.1 11.3 9.2 4.2 2.5 1.6 1.8 5.2 6.5 3.1 2.6 2.5 2.6 3.5 4.0 3.1 2.1 2.0 1.9 2.0 2.0 1.7 1.3 1.6 2.0 1.8 1.9 1.9 1.8 1.8 1.7 1.8 1.5 1.6 1.4 1.4 1.4 1.3 1.1 0.9 0.9 0.6
6.7 9.4 9.8 9.1 10.1 5.4 2.2 2.3 4.7 5.6 2.8 2.2 2.1 2.1 2.3 2.4 2.2 1.9 2.0 2.1 2.3 2.3 2.0 1.6 1.4 1.5 1.5 1.7 1.9 2.0 2.0 1.7 1.7 1.8 1.4 1.4 1.1 1.1 1.1 1.3 1.1 0.8 0.9 0.8
5.3 7.3 7.6 7.2 5.9 3.7 2.9 3.5 3.7 2.9 2.5 1.9 1.9 1.8 2.0 2.1 2.1 2.2 2.3 2.2 2.4 2.2 2.0 1.7 1.4 1.3 1.1 1.6 1.8 2.1 1.9 1.6 1.7 2.1 1.6 1.4 1.1 1.0 1.2 1.6 1.5 1.1 1.2 1.3
3.7 3.8 5.3 4.8 3.5 2.7 2.7 2.5 2.1 1.8 1.9 1.8 1.8 2.0 2.1 2.2 2.2 2.4 2.5 2.5 2.6 2.3 1.8 1.7 1.6 1.7 1.4 1.7 1.9 2.1 2.1 1.8 1.9 1.8 1.5 1.3 1.3 1.3 1.4 1.6 1.7 1.8 2.0 2.8
3.1 3.3 4.2 4.0 2.8 2.2 1.8 1.9 1.9 1.7 1.5 1.5 1.6 1.8 2.1 2.1 2.3 2.3 2.5 2.7 2.3 2.2 2.0 1.9 1.8 1.5 1.6 1.8 2.1 2.0 1.9 1.7 1.9 1.8 1.5 1.2 1.3 1.5 1.6 1.8 1.9 2.3 2.6 3.7
2.3 3.0 3.9 3.5 2.6 3.1 2.5 1.9 1.8 1.9 1.7 1.7 1.8 1.8 1.9 2.0 2.2 2.3 2.4 2.3 2.4 2.4 2.3 2.0 1.8 1.3 1.7 2.1 2.2 2.0 1.7 1.7 2.2 2.1 1.6 1.4 1.4 1.5 1.6 1.9 2.0 1.7 2.3 2.6